STARLINK-33727, 63719

Orbit data source: Space-Track

STARLINK-33727, 63719 is a payload satellite owned by SpaceX/Seattle (US) in LEO that was launched on Mon, 28 Apr 2025 UTC via an FALCON 9 launch vehicle from the Air Force Western Test Range (AFWTR). Payload-class satellites include a variety of spacecraft equipped with specific instruments for various scientific and technological missions. These include communications satellites like Starlink; space stations such as the ISS; scientific satellites like the Hubble; Earth observation satellites from companies like Planet Labs, Umbra, and HawkEye 360; GPS; miniature CubeSats for education and research; and military/defense satellites.

Loading next visibility...
Identifier
63719, 2025-087Y
Orbit
LEO
Country
Flag of USUS
Related business
Manufacturer
SpaceX/Seattle
Mission
Operational Commercial Communications
Bus & Motor
STARLINK V2MO, Unknown motor
Mass
575 kg wet, ~530 kg dry
Launch date (UTC)
2025-04-28 (8 months ago)
Launch vehicle
FALCON 9
Launch site
Air Force Western Test Range (AFWTR)
Object type
Payload
Rocket body
Debris
Shape & HBR
Box + 2 Pan, 17.7 m
Radar Cross Section
36.964 m², Large (>1 m²)

Expand to show TLE details & history
Last TLE update: 17 hours ago

TLE from 17 hours ago
0 STARLINK-33727
1 63719U 25087Y   25348.91574143  .00019205  00000-0  65895-3 0  9997
2 63719  53.1592 253.0913 0001664 111.7388 248.3790 15.30195670 36225
Epoch: 2025-12-14T21:58Z
TLE epoch observation values (Epoch: 2025-12-14T21:58:40.059Z)
Latitude
-0.00002°
Longitude
-160.39743°
Altitude
476.548 km
Speed
7.628 km/s
True Right ascension
16h 52m 21s
True Declination
0° 00' 00"
Sunlit
Object was in daylight at epoch
Visualization orbit readout
Latitude
Unknown
Longitude
Unknown
Altitude
Unknown
Speed
Unknown
Apparent Right ascension
Unknown
Apparent Declination
Unknown
Sunlit
N/A
Visualization observer readout
Local Sidereal Time
13:19:03
Azimuth
Unknown
Elevation
Unknown
Doppler factor
Unknown
Orbital elements
Apogee altitude
476.625 km
Perigee altitude
474.344 km
Semi-major axis
6,853.622 km
Eccentricity
0.00017
Inclination
53.1592°
RAAN
253.0913°
Arg. of periapsis
111.7388°
True anomaly
248.36127°
Mean anomaly
248.379°
Eccentric anomaly
248.37014°
Mean motion
3.82528 °/min
Orbital period
94.11 mins
BSTAR
0.00065895
Loading maneuver chart data...
Computing Atmospheric mass density...
Loading historical data...
Loading historical data...
Loading historical data...
Loading historical data...
Loading historical data...
Loading historical data...
Loading historical data...

Documentation

Showing up to 5 results
|